TimeEST,TemperatureF,Dew PointF,Humidity,Sea Level PressureIn,VisibilityMPH,Wind Direction,Wind SpeedMPH,Gust SpeedMPH,PrecipitationIn,Events,Conditions,WindDirDegrees,DateUTC
12:54 AM,46.9,44.1,90,30.19,5.0,NNE,16.1,-,0.12,Rain,Rain,20,2012-12-13 05:54:00
1:01 AM,46.4,44.6,93,30.21,5.0,NNE,16.1,-,0.01,Rain,Rain,20,2012-12-13 06:01:00
1:56 AM,46.4,44.6,93,30.24,6.0,North,12.7,20.7,0.00,Rain,Rain,10,2012-12-13 06:56:00
2:16 AM,46.4,44.6,93,30.24,5.0,North,18.4,23.0,0.03,Rain,Rain,360,2012-12-13 07:16:00
2:45 AM,46.4,44.6,93,30.22,8.0,NNE,17.3,27.6,0.07,Rain,Light Rain,20,2012-12-13 07:45:00
2:54 AM,46.9,44.1,90,30.21,8.0,NNE,17.3,26.5,0.08,Rain,Light Rain,20,2012-12-13 07:54:00
3:08 AM,46.4,44.6,93,30.21,5.0,NNE,19.6,25.3,0.03,Rain,Rain,20,2012-12-13 08:08:00
3:54 AM,46.9,44.1,90,30.17,10.0,NNE,15.0,-,0.04,,Overcast,20,2012-12-13 08:54:00
4:30 AM,46.4,44.6,93,30.14,7.0,NE,20.7,32.2,0.03,Rain,Light Rain,50,2012-12-13 09:30:00
4:54 AM,48.0,44.1,86,30.14,6.0,NE,23.0,32.2,0.07,Rain,Light Rain,50,2012-12-13 09:54:00
5:54 AM,46.9,44.1,90,30.18,10.0,North,15.0,-,0.03,,Overcast,10,2012-12-13 10:54:00
6:03 AM,46.4,44.6,93,30.18,10.0,North,18.4,24.2,N/A,,Overcast,10,2012-12-13 11:03:00
6:54 AM,45.0,42.1,90,30.19,5.0,North,15.0,24.2,N/A,,Overcast,10,2012-12-13 11:54:00
7:54 AM,46.0,43.0,89,30.22,5.0,North,18.4,23.0,N/A,,Overcast,360,2012-12-13 12:54:00
8:54 AM,46.0,42.1,86,30.24,4.0,North,16.1,21.9,N/A,,Overcast,10,2012-12-13 13:54:00
9:54 AM,46.9,43.0,86,30.26,6.0,North,17.3,24.2,N/A,,Overcast,360,2012-12-13 14:54:00
10:39 AM,46.4,42.8,87,30.29,6.0,North,18.4,-,N/A,,Overcast,360,2012-12-13 15:39:00
11:54 AM,46.9,44.1,90,30.27,2.5,North,16.1,-,N/A,,Overcast,350,2012-12-13 16:54:00
12:04 PM,46.4,44.6,93,30.27,2.5,North,13.8,-,N/A,,Overcast,350,2012-12-13 17:04:00
12:15 PM,46.4,42.8,87,30.27,3.0,North,17.3,24.2,N/A,,Overcast,360,2012-12-13 17:15:00
12:27 PM,48.2,44.6,87,30.27,2.5,North,15.0,-,N/A,,Overcast,350,2012-12-13 17:27:00
12:54 PM,48.0,44.1,86,30.27,2.5,North,17.3,-,N/A,,Overcast,360,2012-12-13 17:54:00
1:31 PM,50.0,44.6,82,30.26,3.0,North,15.0,-,N/A,,Overcast,360,2012-12-13 18:31:00
1:50 PM,50.0,44.6,82,30.26,8.0,North,13.8,-,N/A,,Overcast,360,2012-12-13 18:50:00
1:54 PM,51.1,45.0,80,30.25,8.0,North,13.8,-,N/A,,Overcast,360,2012-12-13 18:54:00
2:45 PM,51.8,44.6,76,30.25,10.0,North,13.8,-,N/A,,Mostly Cloudy,10,2012-12-13 19:45:00
2:54 PM,52.0,45.0,77,30.24,9.0,North,12.7,21.9,N/A,,Mostly Cloudy,10,2012-12-13 19:54:00
3:54 PM,52.0,44.1,74,30.25,10.0,North,20.7,26.5,N/A,,Mostly Cloudy,10,2012-12-13 20:54:00
4:54 PM,51.1,43.0,74,30.25,10.0,NNE,15.0,-,N/A,,Scattered Clouds,20,2012-12-13 21:54:00
5:01 PM,51.8,44.6,76,30.26,10.0,North,13.8,-,N/A,,Mostly Cloudy,10,2012-12-13 22:01:00
5:54 PM,50.0,42.1,74,30.27,10.0,NNE,12.7,-,N/A,,Mostly Cloudy,20,2012-12-13 22:54:00
6:54 PM,48.0,41.0,77,30.29,10.0,NNE,13.8,-,N/A,,Clear,20,2012-12-13 23:54:00
7:54 PM,46.9,41.0,80,30.30,10.0,North,12.7,-,N/A,,Clear,10,2012-12-14 00:54:00
8:54 PM,46.0,39.9,79,30.30,10.0,NNE,13.8,-,N/A,,Clear,20,2012-12-14 01:54:00
9:54 PM,45.0,39.0,80,30.30,10.0,NNE,11.5,-,N/A,,Clear,20,2012-12-14 02:54:00
10:54 PM,45.0,39.0,80,30.30,10.0,North,15.0,-,N/A,,Clear,10,2012-12-14 03:54:00
11:54 PM,44.1,39.0,82,30.30,10.0,North,10.4,-,N/A,,Clear,10,2012-12-14 04:54:00